Weather History for Carson City, NV

Change the Weather History Date:

Thursday, March 7, 2013

  Actual Average Record
Temperature  
Mean Temperature 34 °F -  
Max Temperature 41 °F 56 °F 55 °F (2014)
Min Temperature 28 °F 28 °F 14 °F (2012)
Degree Days  
Heating Degree Days 30    
Moisture  
Dew Point 25 °F    
Average Humidity 68    
Maximum Humidity 93    
Minimum Humidity 49    
Precipitation  
Precipitation 0.00 in - - ()
Sea Level Pressure  
Sea Level Pressure 29.90 in    
Wind  
Wind Speed 3 mph (ENE)    
Max Wind Speed 12 mph    
Max Gust Speed 18 mph    
Visibility 10 miles    
Events Snow    
Averages and records for this station are not official NWS values.
T = Trace of Precipitation, MM = Missing Value Source: NWS Daily Summary

Daily Weather History Graph

Daily Weather History Graph

Search for Another Location

Airport:

Trip Planner

Search our weather history database for the weather conditions in past years. The results will help you decide how hot, cold, wet, or windy it might be!

Date:

Astronomy

Mar. 07, 2013 Rise Set
Actual Time 6:22 AM PST 5:58 PM PST
Civil Twilight 5:55 AM PST 6:24 PM PST
Nautical Twilight 5:24 AM PST 6:55 PM PST
Astronomical Twilight 4:53 AM PST 7:27 PM PST
Moon 3:24 AM PST (3/7) 1:53 PM PST (3/7)
Length of Visible Light 12h 29m
Length of Day
11h 36m
Waning Crescent, 19% of the Moon is Illuminated
Mar 7
Waning Crescent
Mar 11
New
Mar 19
First Quarter
Mar 27
Full
Apr 2
Last Quarter

Hourly Weather History & Observations

Time (PST) Temp. Windchill Dew Point Humidity Pressure Visibility Wind Dir Wind Speed Gust Speed Precip Events Conditions
12:15 AM 28.4 °F 21.2 °F 19.4 °F 69% 29.93 in 10.0 mi East 6.9 mph - N/A   Partly Cloudy
12:35 AM 30.2 °F - 19.4 °F 64% 29.94 in 10.0 mi Calm Calm - N/A   Mostly Cloudy
12:55 AM 32.0 °F 27.5 °F 19.4 °F 60% 29.94 in 10.0 mi East 4.6 mph - N/A   Overcast
1:15 AM 32.0 °F - 19.4 °F 60% 29.95 in 10.0 mi Calm Calm - N/A   Overcast
1:35 AM 32.0 °F 27.5 °F 19.4 °F 60% 29.95 in 10.0 mi SW 4.6 mph - N/A   Overcast
1:55 AM 32.0 °F 28.7 °F 19.4 °F 60% 29.95 in 10.0 mi North 3.5 mph - N/A   Overcast
2:15 AM 32.0 °F 25.6 °F 19.4 °F 60% 29.94 in 10.0 mi NNW 6.9 mph - N/A   Overcast
2:35 AM 32.0 °F 27.5 °F 19.4 °F 60% 29.94 in 10.0 mi ENE 4.6 mph - N/A   Overcast
2:55 AM 32.0 °F - 23.0 °F 69% 29.94 in 8.0 mi Calm Calm - N/A   Overcast
3:15 AM 32.0 °F 27.5 °F 24.8 °F 75% 29.93 in 7.0 mi NNW 4.6 mph - N/A Snow Light Snow
3:35 AM 32.0 °F 28.7 °F 26.6 °F 80% 29.93 in 10.0 mi NNW 3.5 mph - N/A   Overcast
3:55 AM 32.0 °F - 26.6 °F 80% 29.93 in 10.0 mi Calm Calm - N/A   Overcast
4:15 AM 32.0 °F - 26.6 °F 80% 29.92 in 10.0 mi Calm Calm - N/A   Overcast
4:35 AM 32.0 °F - 26.6 °F 80% 29.93 in 10.0 mi Calm Calm - N/A   Overcast
4:55 AM 32.0 °F - 26.6 °F 80% 29.93 in 10.0 mi Calm Calm - N/A   Overcast
5:15 AM 32.0 °F - 26.6 °F 80% 29.93 in 10.0 mi Calm Calm - N/A   Overcast
5:35 AM 32.0 °F - 26.6 °F 80% 29.93 in 10.0 mi Calm Calm - N/A   Overcast
5:55 AM 32.0 °F - 26.6 °F 80% 29.93 in 10.0 mi Calm Calm - N/A   Overcast
6:15 AM 32.0 °F 28.7 °F 26.6 °F 80% 29.93 in 10.0 mi South 3.5 mph - N/A   Overcast
6:35 AM 32.0 °F 28.7 °F 26.6 °F 80% 29.93 in 10.0 mi SW 3.5 mph - N/A   Overcast
6:55 AM 32.0 °F - 26.6 °F 80% 29.93 in 10.0 mi Calm Calm - N/A   Overcast
7:15 AM 32.0 °F 28.7 °F 26.6 °F 80% 29.94 in 10.0 mi SSW 3.5 mph - N/A   Overcast
7:35 AM 32.0 °F 26.4 °F 26.6 °F 80% 29.94 in 10.0 mi SSW 5.8 mph - N/A   Overcast
7:55 AM 32.0 °F 26.4 °F 26.6 °F 80% 29.95 in 10.0 mi South 5.8 mph - N/A   Mostly Cloudy
8:15 AM 32.0 °F 27.5 °F 24.8 °F 75% 29.95 in 10.0 mi SSW 4.6 mph - N/A   Scattered Clouds
8:35 AM 32.0 °F 28.7 °F 26.6 °F 80% 29.95 in 4.0 mi SSW 3.5 mph - N/A   Clear
8:55 AM 32.0 °F 27.5 °F 26.6 °F 80% 29.95 in 2.0 mi WNW 4.6 mph - N/A Snow Light Snow
9:15 AM 32.0 °F - 26.6 °F 80% 29.95 in 3.0 mi Calm Calm - N/A Snow Light Snow
9:35 AM 32.0 °F - 26.6 °F 80% 29.95 in 10.0 mi Calm Calm - N/A   Clear
9:55 AM 32.0 °F - 24.8 °F 75% 29.95 in 10.0 mi Calm Calm - N/A   Clear
10:15 AM 32.0 °F - 24.8 °F 75% 29.94 in 10.0 mi Calm Calm - N/A   Scattered Clouds
10:35 AM 33.8 °F 30.8 °F 24.8 °F 70% 29.94 in 10.0 mi NE 3.5 mph - N/A   Partly Cloudy
10:55 AM 35.6 °F - 23.0 °F 60% 29.93 in 10.0 mi Calm Calm - N/A   Clear
11:15 AM 37.4 °F 34.9 °F 23.0 °F 56% 29.93 in 10.0 mi East 3.5 mph - N/A   Clear
11:35 AM 37.4 °F 34.9 °F 23.0 °F 56% 29.92 in 10.0 mi SW 3.5 mph - N/A   Clear
11:55 AM 39.2 °F 37.0 °F 23.0 °F 52% 29.91 in 10.0 mi ESE 3.5 mph - N/A   Partly Cloudy
12:15 PM 37.4 °F 33.8 °F 23.0 °F 56% 29.90 in 10.0 mi ENE 4.6 mph - N/A   Partly Cloudy
12:35 PM 39.2 °F - 23.0 °F 52% 29.89 in 10.0 mi Calm Calm - N/A   Scattered Clouds
12:55 PM 41.0 °F 38.0 °F 23.0 °F 49% 29.88 in 10.0 mi East 4.6 mph - N/A   Mostly Cloudy
1:15 PM 39.2 °F 37.0 °F 23.0 °F 52% 29.87 in 10.0 mi NE 3.5 mph - N/A   Overcast
1:35 PM 41.0 °F - 23.0 °F 49% 29.86 in 10.0 mi Calm Calm - N/A   Overcast
1:55 PM 41.0 °F 37.1 °F 23.0 °F 49% 29.86 in 10.0 mi South 5.8 mph - N/A   Overcast
2:15 PM 41.0 °F 39.0 °F 23.0 °F 49% 29.86 in 10.0 mi SSW 3.5 mph - N/A   Overcast
2:35 PM 41.0 °F 39.0 °F 23.0 °F 49% 29.86 in 10.0 mi WNW 3.5 mph - N/A   Overcast
2:55 PM 41.0 °F - 23.0 °F 49% 29.86 in 10.0 mi Calm Calm - N/A   Mostly Cloudy
3:15 PM 41.0 °F 36.4 °F 23.0 °F 49% 29.85 in 10.0 mi NW 6.9 mph - N/A   Mostly Cloudy
3:35 PM 41.0 °F - 23.0 °F 49% 29.85 in 10.0 mi Calm Calm - N/A   Mostly Cloudy
3:55 PM 41.0 °F - 23.0 °F 49% 29.84 in 10.0 mi Calm Calm - N/A   Mostly Cloudy
5:35 PM 41.0 °F 34.3 °F 23.0 °F 49% 29.85 in 10.0 mi NE 11.5 mph 18.4 mph N/A   Overcast
5:55 PM 39.2 °F 33.6 °F 23.0 °F 52% 29.85 in 10.0 mi ENE 8.1 mph - N/A   Overcast
6:15 PM 39.2 °F 33.6 °F 23.0 °F 52% 29.85 in 10.0 mi NNE 8.1 mph - N/A   Overcast
6:35 PM 39.2 °F 33.6 °F 24.8 °F 56% 29.86 in 10.0 mi NNW 8.1 mph - N/A   Overcast
6:55 PM 37.4 °F 31.4 °F 28.4 °F 70% 29.86 in 10.0 mi North 8.1 mph - N/A   Overcast
7:15 PM 37.4 °F 30.3 °F 28.4 °F 70% 29.86 in 10.0 mi North 10.4 mph - N/A   Overcast
7:35 PM 35.6 °F 28.6 °F 26.6 °F 70% 29.87 in 10.0 mi NE 9.2 mph - N/A   Overcast
7:55 PM 37.4 °F 29.8 °F 24.8 °F 60% 29.86 in 10.0 mi NE 11.5 mph - N/A   Overcast
8:15 PM 37.4 °F 32.8 °F 24.8 °F 60% 29.87 in 10.0 mi ESE 5.8 mph - N/A   Overcast
8:35 PM 35.6 °F - 28.4 °F 75% 29.87 in 10.0 mi Calm Calm - N/A   Overcast
8:55 PM 35.6 °F - 28.4 °F 75% 29.87 in 10.0 mi Calm Calm - N/A   Overcast
9:15 PM 35.6 °F 31.7 °F 28.4 °F 75% 29.88 in 10.0 mi NE 4.6 mph - N/A   Overcast
9:35 PM 35.6 °F 31.7 °F 28.4 °F 75% 29.88 in 10.0 mi ESE 4.6 mph - N/A   Overcast
9:55 PM 35.6 °F - 30.2 °F 81% 29.88 in 10.0 mi Calm Calm - N/A   Overcast
10:15 PM 33.8 °F 30.8 °F 30.2 °F 87% 29.88 in 10.0 mi South 3.5 mph - N/A   Overcast
10:35 PM 33.8 °F - 30.2 °F 87% 29.88 in 10.0 mi Calm Calm - N/A   Overcast
10:55 PM 33.8 °F 30.8 °F 30.2 °F 87% 29.87 in 10.0 mi SSW 3.5 mph - N/A   Overcast
11:15 PM 32.0 °F - 30.2 °F 93% 29.87 in 10.0 mi Calm Calm - N/A   Overcast
11:35 PM 32.0 °F - 28.4 °F 87% 29.87 in 10.0 mi Calm Calm - N/A   Overcast
11:55 PM 32.0 °F - 30.2 °F 93% 29.86 in 10.0 mi Calm Calm - N/A   Overcast